Temp
20 20 20 20 20 20 20 20 21 21 21 21 21 21 21 21 21 21 21 21 21 21 21 20 20 20 20 21 21 20 20 20 20 20 20 20 20 19 19 18 18 18 18
21 21 20 20 20 20 20 20 21 21 21 21 21 21 21 21 21 21 20 20 20 20 20 20 20 20 20 21 21 20 20 20 20 20 20 19 19 19 19 18 18 18 18
21 21 20 20 20 20 20 20 20 20 21 21 21 21 21 21 21 20 20 20 20 20 20 20 20 20 20 20 20 20 20 20 19 20 20 19 20 19 19 18 18 19 19
22 21 21 21 21 21 21 21 20 20 20 20 20 20 21 20 20 20 20 20 20 20 20 20 20 20 20 20 20 20 20 20 19 19 18 19 19 19 19 18 18 18 19
21 21 21 21 21 21 21 21 21 20 20 20 20 20 20 20 20 20 20 20 20 20 20 20 20 20 20 20 20 20 20 20 20 19 18 19 19 19 19 19 18 18 18
21 21 21 21 21 21 21 21 20 20 20 20 19 19 20 20 20 20 20 20 20 20 20 20 20 20 20 20 20 20 20 19 20 19 18 19 19 19 18 19 18 18 18
21 21 21 21 21 20 20 20 20 20 20 19 19 19 20 20 20 20 20 20 20 20 20 20 20 20 20 20 19 19 20 19 19 19 19 18 18 18 18 18 19 19 19
21 21 21 21 21 20 20 20 20 20 20 20 20 20 20 20 20 20 20 20 20 20 20 20 19 19 19 19 19 19 19 19 19 19 19 19 18 18 18 19 19 19 18
21 22 21 21 21 21 20 20 20 20 20 20 20 20 20 20 20 20 20 20 20 20 20 20 19 19 19 19 19 19 19 20 20 20 19 19 18 18 19 19 19 19 19
22 22 22 21 21 21 20 20 21 21 20 20 20 20 20 21 21 21 20 20 20 20 19 19 19 18 18 19 19 19 19 19 19 19 20 19 19 18 19 19 19 19 19
22 22 22 21 21 21 20 21 20 20 20 20 20 20 21 21 21 20 20 20 20 20 20 20 19 19 19 19 20 20 20 20 19 19 19 19 19 19 19 20 20 19 19
22 22 23 22 21 21 21 21 21 21 21 21 21 20 20 21 20 20 19 20 20 20 19 19 19 20 19 19 19 19 19 20 20 20 20 19 19 20 20 20 20 20 19
23 22 22 21 21 21 21 21 21 21 21 21 21 21 20 20 19 19 19 20 20 20 20 21 21 20 19 19 19 19 19 19 20 20 20 19 20 20 20 21 21 20 20
23 23 22 22 21 21 20 20 21 21 21 21 21 21 21 21 19 19 20 20 20 20 20 21 20 20 20 20 19 19 19 20 20 20 20 20 20 21 20 20 21 20 20
23 23 23 22 22 21 21 21 21 22 21 21 21 21 21 21 20 20 21 21 21 21 20 20 21 20 20 20 20 21 20 20 21 20 20 21 20 20 20 20 20 20 20
25 24 23 23 22 22 21 21 21 21 21 21 21 21 21 21 21 20 20 21 21 21 21 20 21 20 20 20 21 22 22 20 20 21 19 20 20 20 19 19 20 19 20
25 25 24 23 23 22 22 22 22 22 22 22 22 21 21 21 21 20 20 20 21 21 20 21 21 21 20 20 21 21 21 22 22 21 19 20 21 21 21 21 20 20 19
26 25 25 24 23 23 22 22 22 22 22 22 22 22 22 22 22 21 21 21 21 21 21 21 21 21 21 21 20 21 21 21 21 21 18 19 20 21 21 22 22 21 20
26 25 25 24 24 23 23 22 22 22 22 22 22 22 22 22 22 21 22 22 21 21 21 21 21 21 21 21 21 21 21 21 21 21 21 18 18 20 21 22 22 21 21
27 26 25 25 24 24 23 23 22 22 22 22 22 22 22 22 22 22 21 21 21 21 21 21 22 21 21 21 21 21 21 20 21 22 23 21 19 20 18 20 21 21 21
27 26 25 25 24 24 23 23 22 22 21 21 21 22 22 22 22 21 21 21 21 21 21 21 21 21 21 21 21 21 21 21 21 22 22 21 19 21 21 19 21 21 21
27 27 26 25 24 24 23 23 22 22 22 22 22 22 22 22 22 21 21 21 21 21 21 21 21 21 21 21 21 21 21 20 21 22 22 22 21 22 22 20 21 21 21
28 27 26 25 24 24 23 23 22 22 22 21 22 22 22 22 22 22 22 22 21 21 21 21 21 21 21 21 21 20 21 21 21 21 22 22 21 22 21 21 21 21 21
28 27 27 26 25 24 23 22 22 22 22 22 22 22 23 23 23 23 23 22 22 22 21 21 21 21 21 21 21 21 20 20 20 20 21 22 21 22 21 21 21 21 21
29 28 27 26 25 24 23 23 22 22 22 22 22 23 23 23 23 23 23 23 23 22 23 22 21 21 21 20 20 20 20 20 20 20 20 21 21 22 22 21 21 21 20
29 28 28 27 26 25 24 23 22 22 22 22 22 22 23 23 23 23 23 23 23 23 23 23 22 22 21 20 20 20 20 20 20 20 20 21 21 21 21 21 21 21 21
Height
1534 1536 1538 1540 1543 1546 1548 1550 1552 1554 1557 1560 1562 1564 1566 1567 1569 1570 1571 1571 1571 1572 1573 1574 1574 1575 1576 1576 1576 1577 1577 1577 1577 1579 1579 1580 1580 1580 1580 1580 1580 1581 1582
1529 1534 1537 1540 1544 1547 1549 1552 1554 1556 1559 1561 1564 1565 1567 1568 1570 1570 1571 1572 1573 1573 1574 1574 1574 1574 1575 1575 1575 1575 1575 1576 1577 1577 1577 1578 1579 1580 1581 1582 1582 1581 1583
1530 1534 1537 1541 1544 1548 1550 1554 1556 1558 1561 1563 1565 1566 1567 1569 1570 1571 1571 1572 1573 1574 1575 1575 1575 1575 1575 1575 1575 1575 1575 1575 1574 1574 1575 1576 1578 1579 1580 1582 1582 1581 1583
1530 1534 1538 1542 1545 1549 1552 1554 1557 1559 1561 1564 1566 1567 1568 1569 1570 1571 1572 1573 1574 1575 1575 1576 1575 1575 1576 1576 1576 1576 1575 1574 1574 1573 1573 1574 1574 1575 1578 1580 1582 1580 1581
1531 1535 1538 1542 1546 1550 1553 1556 1558 1560 1562 1563 1565 1567 1568 1569 1570 1571 1572 1573 1574 1575 1575 1576 1576 1576 1577 1577 1578 1577 1576 1575 1574 1573 1572 1574 1574 1575 1576 1577 1580 1579 1579
1531 1535 1539 1543 1547 1550 1553 1556 1559 1561 1563 1564 1565 1566 1568 1569 1570 1571 1571 1572 1573 1574 1575 1575 1576 1576 1576 1577 1578 1577 1576 1576 1576 1575 1574 1574 1574 1576 1577 1577 1578 1578 1579
1531 1536 1540 1544 1547 1551 1555 1557 1559 1561 1563 1564 1565 1566 1567 1569 1570 1571 1571 1572 1573 1575 1576 1576 1576 1575 1575 1576 1576 1576 1575 1575 1576 1577 1577 1576 1575 1576 1576 1576 1576 1577 1578
1532 1536 1541 1544 1548 1551 1554 1557 1559 1561 1562 1563 1564 1566 1567 1568 1569 1570 1572 1573 1574 1575 1576 1576 1576 1575 1575 1575 1575 1574 1574 1574 1576 1577 1577 1577 1577 1577 1578 1577 1577 1577 1578
1534 1537 1541 1544 1548 1551 1554 1557 1559 1560 1561 1562 1563 1564 1565 1567 1568 1570 1571 1572 1573 1574 1575 1575 1574 1574 1573 1572 1573 1573 1572 1573 1575 1576 1576 1575 1577 1579 1580 1579 1578 1577 1578
1535 1538 1541 1544 1547 1551 1553 1556 1558 1559 1560 1561 1562 1563 1564 1566 1568 1570 1572 1572 1573 1573 1574 1574 1574 1574 1572 1570 1569 1571 1571 1571 1573 1574 1575 1574 1575 1578 1578 1577 1577 1577 1577
1534 1537 1540 1543 1547 1550 1552 1555 1557 1558 1559 1560 1561 1563 1564 1565 1567 1569 1571 1572 1572 1571 1571 1572 1573 1570 1567 1566 1566 1567 1568 1567 1569 1571 1573 1573 1572 1574 1574 1574 1573 1574 1575
1531 1535 1538 1542 1545 1548 1551 1554 1556 1558 1558 1559 1561 1562 1564 1565 1567 1569 1570 1571 1570 1570 1570 1568 1568 1567 1566 1566 1568 1571 1572 1569 1569 1570 1572 1572 1572 1572 1573 1572 1570 1570 1572
1530 1534 1538 1541 1545 1548 1550 1553 1556 1557 1558 1559 1560 1562 1563 1564 1566 1569 1569 1570 1569 1569 1569 1567 1568 1569 1567 1566 1568 1569 1570 1570 1568 1568 1568 1569 1569 1568 1569 1570 1569 1568 1568
1528 1531 1535 1539 1543 1546 1548 1551 1554 1554 1555 1557 1559 1560 1562 1563 1563 1567 1569 1569 1570 1569 1568 1567 1569 1567 1562 1565 1565 1565 1561 1566 1562 1564 1565 1564 1565 1566 1566 1567 1566 1565 1566
1528 1530 1532 1536 1541 1544 1547 1550 1552 1552 1553 1554 1556 1558 1560 1561 1563 1566 1568 1569 1569 1569 1569 1568 1568 1568 1565 1562 1559 1555 1558 1558 1558 1558 1556 1557 1559 1561 1562 1563 1562 1562 1563
1527 1529 1531 1534 1538 1541 1544 1547 1549 1551 1551 1553 1554 1557 1559 1561 1563 1564 1566 1567 1567 1568 1568 1566 1566 1565 1564 1562 1559 1554 1554 1555 1554 1552 1540 1548 1554 1559 1558 1558 1557 1556 1557
1525 1529 1530 1533 1536 1540 1544 1546 1549 1551 1552 1554 1555 1556 1559 1560 1561 1562 1564 1565 1566 1567 1565 1565 1564 1562 1561 1560 1558 1557 1555 1552 1551 1552 1551 1550 1550 1552 1554 1554 1551 1550 1551
1522 1525 1527 1531 1534 1538 1540 1544 1546 1549 1550 1552 1554 1556 1557 1559 1560 1560 1560 1562 1563 1564 1566 1566 1564 1561 1559 1558 1557 1557 1554 1550 1552 1552 1551 1548 1544 1549 1556 1557 1551 1548 1545
1517 1521 1524 1527 1530 1534 1536 1539 1542 1545 1548 1549 1551 1552 1553 1555 1556 1557 1557 1558 1560 1562 1562 1563 1562 1561 1559 1558 1556 1555 1552 1550 1550 1549 1547 1544 1534 1555 1554 1555 1553 1548 1546
1514 1517 1521 1522 1525 1530 1534 1537 1541 1543 1545 1547 1548 1550 1552 1552 1554 1555 1556 1557 1558 1559 1560 1561 1561 1560 1559 1556 1555 1553 1553 1549 1547 1545 1542 1538 1545 1546 1531 1549 1550 1548 1546
1511 1514 1517 1520 1522 1527 1530 1533 1536 1537 1540 1542 1544 1547 1549 1550 1551 1551 1553 1555 1556 1557 1558 1559 1558 1558 1557 1556 1554 1554 1551 1548 1544 1540 1539 1541 1547 1544 1541 1541 1548 1546 1543
1508 1511 1514 1517 1519 1523 1526 1530 1533 1536 1538 1541 1543 1544 1546 1547 1548 1549 1549 1550 1552 1554 1555 1556 1557 1555 1555 1554 1553 1551 1549 1547 1541 1537 1535 1536 1536 1538 1538 1539 1538 1540 1540
1503 1506 1509 1514 1518 1520 1523 1528 1531 1534 1536 1539 1540 1541 1542 1544 1545 1546 1547 1547 1547 1549 1550 1551 1552 1552 1551 1552 1550 1550 1547 1545 1543 1538 1535 1535 1537 1537 1535 1534 1533 1536 1536
1496 1500 1505 1510 1514 1518 1521 1524 1527 1529 1532 1535 1537 1539 1540 1541 1541 1541 1542 1543 1543 1543 1544 1545 1547 1547 1547 1547 1548 1546 1546 1544 1542 1539 1539 1537 1537 1535 1535 1533 1532 1532 1532
1487 1491 1497 1504 1509 1514 1519 1522 1526 1528 1529 1531 1534 1535 1537 1537 1537 1538 1538 1538 1539 1538 1538 1539 1540 1540 1540 1541 1543 1543 1542 1541 1540 1538 1537 1537 1536 1534 1532 1531 1532 1528 1531
1484 1488 1492 1498 1503 1509 1514 1518 1521 1523 1526 1527 1530 1532 1533 1533 1533 1533 1534 1533 1533 1533 1533 1533 1533 1533 1534 1534 1536 1537 1537 1537 1536 1536 1534 1532 1531 1530 1530 1529 1527 1527 1529
Wind_Speed
24 24 25 24 23 23 24 24 25 26 26 25 24 24 23 23 21 19 16 14 13 11 9 8 7 6 5 4 3 2 1 2 1 2 4 5 6 5 8 12 12 8 6
30 26 26 25 24 24 24 24 25 25 25 25 23 21 19 18 16 15 12 11 8 8 6 5 4 2 2 1 2 1 1 1 1 3 5 6 8 6 6 7 6 9 6
30 28 27 26 25 26 25 24 25 24 23 21 19 17 15 14 13 11 9 8 6 5 3 2 1 2 1 1 1 1 1 1 3 6 6 8 4 3 6 7 5 7 6
32 29 28 27 27 26 25 25 24 24 22 19 16 14 13 12 11 10 8 7 5 3 2 3 3 3 2 2 1 1 0 3 6 9 6 5 4 7 7 5 6 8 7
32 30 29 27 27 26 24 23 23 22 18 16 14 12 11 11 10 9 8 6 5 4 4 3 4 3 3 4 3 3 2 2 9 10 7 7 6 6 2 5 8 8 8
32 30 28 27 25 25 24 22 20 18 15 14 12 11 11 10 9 7 7 6 6 5 4 4 4 5 5 5 5 5 5 4 9 11 3 4 6 4 3 7 8 9 10
30 30 29 26 24 23 22 20 19 17 14 12 10 9 9 9 8 7 7 6 5 5 5 6 7 7 7 6 6 5 6 7 8 7 12 5 8 6 5 5 8 11 11
26 29 28 26 23 22 21 19 17 15 13 11 10 9 9 8 7 6 5 6 6 6 7 8 8 8 8 7 7 6 6 7 10 11 10 9 12 6 7 5 9 12 13
23 24 26 26 24 22 20 19 16 15 12 10 11 11 10 9 8 5 4 5 6 7 7 7 8 8 8 9 8 7 7 7 9 12 10 6 10 12 9 7 9 12 11
25 20 23 25 24 23 21 18 16 14 12 11 11 11 10 8 6 2 2 4 5 5 7 8 10 10 11 11 10 9 9 9 8 11 15 12 12 18 12 11 9 10 12
22 19 26 25 24 23 21 19 17 15 13 12 11 10 9 7 7 5 3 4 5 6 6 9 11 12 10 11 9 6 7 7 6 10 14 13 11 14 12 10 11 11 12
21 17 25 25 24 23 21 19 15 14 14 13 11 10 8 6 5 3 4 5 6 5 9 9 13 12 10 9 10 7 11 8 6 9 12 12 13 15 12 12 10 10 11
19 16 17 18 22 21 18 16 10 10 10 9 9 9 6 7 3 3 6 6 7 9 9 7 14 11 8 8 7 12 14 19 11 10 10 14 15 15 9 11 9 9 9
26 18 16 13 13 15 17 13 5 7 7 3 2 1 3 6 6 6 7 9 9 12 10 8 11 11 16 15 14 19 15 12 12 15 13 17 21 17 13 13 10 10 9
29 25 21 19 15 17 18 17 9 4 5 3 4 5 5 5 7 9 6 7 8 9 11 9 12 12 9 8 7 19 18 13 13 14 14 15 25 23 16 14 12 11 11
27 24 25 24 21 19 18 15 11 8 11 8 9 11 8 7 5 6 6 9 8 7 12 14 13 15 10 9 14 9 12 15 15 13 17 11 18 19 15 18 13 12 11
29 26 27 26 24 23 24 20 20 17 14 14 13 13 13 12 9 12 13 11 11 8 5 10 11 14 12 12 15 14 15 9 8 12 17 13 9 22 22 15 17 13 11
30 30 27 27 26 23 26 27 24 24 19 15 13 12 14 14 13 10 17 15 11 7 9 10 11 12 13 13 16 14 12 10 13 18 12 11 14 19 14 10 16 13 12
32 32 29 28 26 23 21 29 27 24 22 19 16 16 15 15 15 14 14 9 11 8 9 13 12 15 16 16 13 14 14 12 16 11 15 25 22 13 15 15 8 8 12
31 31 32 30 27 24 20 18 24 21 19 20 20 16 16 17 17 15 9 9 11 10 11 12 15 15 13 16 11 14 13 15 15 14 10 17 12 13 24 12 10 9 8
32 32 34 34 31 26 24 22 20 23 22 21 18 22 18 15 16 14 15 11 12 13 13 12 16 14 14 10 13 11 12 11 10 11 16 9 12 10 10 17 13 9 10
34 32 33 33 32 29 26 24 21 17 20 15 15 16 17 18 19 21 21 18 15 15 15 16 12 16 16 10 10 10 6 9 8 11 14 11 8 6 7 16 11 11 12
35 36 34 32 32 31 30 25 20 13 17 18 19 15 15 17 18 20 19 21 19 18 19 19 20 18 17 14 11 8 6 4 15 12 11 7 4 10 7 8 11 14 11
38 35 34 32 30 32 30 29 25 20 18 17 19 20 19 19 20 18 18 19 19 22 22 22 21 22 18 17 11 11 11 13 16 9 12 12 10 3 10 9 14 13 14
41 39 36 33 32 30 30 31 26 23 23 21 19 21 20 21 24 25 22 23 25 23 22 21 23 23 22 19 15 13 13 15 15 15 17 14 14 8 6 8 12 17 19
41 39 37 35 32 29 26 26 29 25 23 22 18 19 20 21 23 26 29 31 29 27 23 18 17 20 22 26 24 23 19 17 18 13 18 21 19 14 9 14 17 18 20
Wind_Direction
162 153 145 142 143 142 141 139 136 134 137 141 141 141 142 143 144 145 144 141 139 136 132 130 136 143 147 163 181 204 230 246 197 107 103 109 116 121 134 135 128 129 116
156 154 149 147 145 143 142 141 137 135 138 142 142 143 145 145 147 147 146 147 146 144 134 129 135 149 170 205 248 265 264 260 204 179 146 127 119 128 147 153 154 136 143
157 152 149 149 147 145 144 142 140 137 138 141 144 147 150 150 153 158 160 160 158 165 170 173 248 269 265 267 291 0 60 103 151 170 172 155 39 144 161 186 207 153 151
158 152 150 150 149 149 147 146 146 144 141 142 144 149 155 158 161 165 169 174 178 188 219 272 276 278 283 292 309 322 188 103 146 157 165 186 250 239 207 178 220 188 170
158 155 153 151 151 151 152 150 151 153 153 154 155 155 161 169 169 170 176 187 204 229 243 247 263 274 287 295 296 284 263 158 155 154 179 135 148 72 213 187 216 199 184
158 159 157 155 154 155 158 161 162 164 165 167 168 167 169 171 176 185 195 214 228 233 241 250 259 272 279 282 279 271 249 214 179 165 184 178 175 302 229 219 210 205 197
159 160 162 160 160 160 163 165 166 169 172 175 179 181 180 185 194 211 224 231 243 255 260 268 278 285 287 284 274 261 253 229 201 174 169 210 227 247 309 220 214 211 203
153 161 163 165 165 167 169 171 174 176 179 183 192 198 204 208 211 215 233 257 268 275 286 291 290 291 291 286 277 263 250 238 223 200 179 207 226 251 284 252 225 213 213
163 163 167 168 169 172 175 175 179 183 189 198 204 205 205 209 216 229 249 274 284 294 302 302 298 294 291 287 279 271 263 247 228 211 197 192 226 244 263 285 250 228 220
178 176 177 175 177 178 180 182 184 190 198 202 196 197 199 199 196 174 307 315 316 323 321 315 307 300 291 285 281 276 267 263 251 221 204 209 238 257 267 270 264 247 232
178 189 183 182 182 183 183 187 190 196 201 200 195 196 195 199 193 157 58 339 351 322 303 310 306 290 278 274 265 247 256 264 235 207 205 207 224 237 257 271 262 261 255
173 178 186 186 185 186 187 191 196 205 205 205 203 206 206 214 162 184 3 313 328 308 323 299 308 272 266 272 268 267 292 290 216 199 214 227 237 240 252 271 263 256 258
181 187 186 184 188 189 184 175 190 219 208 211 215 214 194 169 178 285 275 296 298 287 308 318 327 291 269 271 271 280 277 277 256 237 234 241 238 234 240 250 259 253 252
181 187 186 192 179 177 188 195 233 207 172 169 199 310 316 238 229 238 247 264 299 310 316 292 330 336 322 291 280 278 263 253 243 267 261 258 249 240 237 244 274 279 267
184 187 189 191 189 175 195 208 214 227 211 237 251 276 298 290 228 203 193 255 280 296 297 302 328 322 316 317 303 302 278 275 257 250 255 257 242 241 233 238 257 267 277
186 190 192 195 189 184 198 198 213 235 250 238 255 262 269 279 276 194 250 254 265 284 288 284 312 309 309 303 303 270 330 272 258 255 235 245 240 231 248 250 249 251 262
188 191 197 196 195 191 194 202 207 202 200 220 245 255 262 261 287 243 229 233 243 276 266 299 293 305 290 295 306 311 318 319 269 264 279 234 240 243 264 259 235 233 241
193 190 201 205 202 206 216 209 219 201 194 211 241 245 252 265 278 283 235 244 241 250 277 270 276 305 310 315 313 321 321 291 336 293 308 264 263 233 241 290 241 233 218
201 191 200 210 211 220 224 227 219 216 210 204 215 240 250 260 270 283 259 240 206 244 263 274 271 287 302 306 297 308 318 312 311 304 268 307 267 255 272 285 225 281 236
204 199 196 210 215 219 227 232 227 219 214 209 214 217 241 260 264 280 279 247 226 246 260 265 282 285 294 314 310 315 313 308 298 293 283 255 275 293 248 246 266 281 240
203 201 199 204 215 218 221 224 227 225 216 219 220 220 231 249 260 271 281 279 243 249 263 275 282 271 293 315 300 306 316 308 305 325 324 279 252 260 271 239 256 266 272
205 206 208 209 215 221 227 231 238 241 229 229 235 232 226 238 251 260 266 268 269 244 258 269 272 284 290 299 291 302 313 307 303 321 318 308 222 248 253 229 242 274 278
209 211 213 214 217 221 229 231 238 237 228 229 239 239 242 248 257 268 271 269 266 262 253 257 263 274 288 291 278 284 299 281 313 314 331 332 297 284 254 248 253 260 274
210 216 219 219 219 220 224 230 234 227 224 223 236 253 254 260 268 272 279 278 280 268 258 253 260 262 274 275 266 260 281 289 292 290 316 313 324 264 239 245 258 252 261
206 212 219 221 224 225 224 230 230 225 231 232 237 243 247 260 270 272 274 276 277 277 271 261 256 254 257 259 262 252 275 269 282 274 295 302 300 293 259 240 250 260 255
205 209 214 219 223 227 231 230 226 229 235 236 241 253 259 261 269 275 277 276 275 275 272 272 267 260 254 257 263 264 263 263 272 270 271 287 294 301 294 286 263 255 251